Location: Devore Heights
(34.2372°N, 117.4156°W)
Time: 19:59:32
(UTC+00:00)

deb Explorer IX - Pass Details

Date: 17 September 2024
Orbit: 502 x 816 km, 38.7° (Epoch: 15 October)

Event Time Altitude Azimuth Distance (km) Brightness Sun altitude
Rises 08:36:37 0° 286° (WNW) 3,334 - -51.7°
Reaches altitude 10° 08:39:24 10° 278° (W) 2,358 - -51.5°
Maximum altitude 08:44:22 34° 215° (SW) 1,225 - -51.1°
Drops below altitude 10° 08:48:55 10° 151° (SSE) 2,152 - -50.7°
Sets 08:51:22 0° 142° (SE) 3,004 - -50.5°
